DAL122 RKSI-KLAX

Flight info

Callsign DAL122
Flight time N/A
Altitude 33000
Route EGOBA2E/33L EGOBA Y697 LANAT Y51 SAMON Y142 GTC Y512 ADNAP OTR5 KALNA DCT 41N160E/N0479F390 42N170E 43N180E 43N170W 42N160W 41N150W/N0480F410 40N140W 39N130W DCT CEPAS DCT PIRAT DCT BURGL IRNMN2
Aircraft A359/H-VGDW/C

Departure

Time N/A
Airport Incheon International Airport (RKSI)

Arrival

Time 2026-04-25 01:53
Airport Los Angeles International Airport (KLAX)
Time Latitude Longitude Altitude Speed Heading
2026-04-24 18:54 48.20729 162.84355 34781 ft 561 kts 75°
2026-04-24 18:55 48.23945 163.01236 34774 ft 561 kts 75°
2026-04-24 18:56 48.26062 163.12426 34770 ft 562 kts 75°
2026-04-24 18:56 48.28182 163.23706 34777 ft 562 kts 76°
2026-04-24 18:57 48.30294 163.35009 34773 ft 562 kts 76°
2026-04-24 18:57 48.32398 163.46332 34776 ft 563 kts 76°
2026-04-24 18:58 48.34495 163.57695 34770 ft 563 kts 76°
2026-04-24 18:58 48.36579 163.69052 34775 ft 564 kts 76°
2026-04-24 18:59 48.38654 163.80433 34774 ft 564 kts 76°
2026-04-24 18:59 48.40718 163.91826 34768 ft 565 kts 76°
2026-04-24 19:00 48.42773 164.03241 34770 ft 565 kts 76°
2026-04-24 19:00 48.44820 164.14678 34775 ft 566 kts 76°
2026-04-24 19:01 48.46857 164.26137 34775 ft 566 kts 76°
2026-04-24 19:01 48.48868 164.37523 34776 ft 566 kts 77°
2026-04-24 19:02 48.50557 164.47137 34769 ft 567 kts 77°
2026-04-24 19:02 48.52889 164.60504 34774 ft 567 kts 77°
2026-04-24 19:03 48.54886 164.72031 34771 ft 568 kts 77°
2026-04-24 19:03 48.56872 164.83571 34772 ft 568 kts 77°
2026-04-24 19:04 48.58853 164.95155 34785 ft 569 kts 77°
2026-04-24 19:04 48.60821 165.06746 34776 ft 570 kts 77°
2026-04-24 19:05 48.62779 165.18350 34775 ft 570 kts 77°
2026-04-24 19:05 48.64728 165.29981 34778 ft 570 kts 77°
2026-04-24 19:06 48.66663 165.41605 34782 ft 571 kts 77°
2026-04-24 19:06 48.68589 165.53258 34783 ft 571 kts 77°
2026-04-24 19:07 48.70504 165.64923 34781 ft 571 kts 77°
2026-04-24 19:07 48.72088 165.74633 34782 ft 571 kts 78°
2026-04-24 19:08 48.74285 165.88196 34781 ft 571 kts 78°
2026-04-24 19:08 48.76165 165.99890 34785 ft 571 kts 78°
2026-04-24 19:09 48.78036 166.11610 34785 ft 572 kts 78°
2026-04-24 19:09 48.79896 166.23346 34787 ft 573 kts 78°
2026-04-24 19:10 48.81747 166.35108 34783 ft 573 kts 78°
2026-04-24 19:10 48.83585 166.46876 34787 ft 574 kts 78°
2026-04-24 19:11 48.85415 166.58673 34786 ft 574 kts 78°
2026-04-24 19:11 48.87234 166.70485 34789 ft 575 kts 78°
2026-04-24 19:12 48.89043 166.82325 34793 ft 575 kts 78°
2026-04-24 19:12 48.90840 166.94170 34793 ft 575 kts 78°
2026-04-24 19:13 48.92324 167.04023 34794 ft 576 kts 79°
2026-04-24 19:13 48.94401 167.17912 34794 ft 576 kts 79°
2026-04-24 19:14 48.96165 167.29810 34792 ft 576 kts 79°
2026-04-24 19:14 48.97917 167.41711 34794 ft 577 kts 79°
2026-04-24 19:15 48.99658 167.53636 34797 ft 577 kts 79°
2026-04-24 19:15 49.01377 167.65495 34805 ft 577 kts 79°
2026-04-24 19:16 49.03950 167.83425 34807 ft 578 kts 79°
2026-04-24 19:16 49.05650 167.95393 34806 ft 578 kts 79°
2026-04-24 19:17 49.07340 168.07387 34805 ft 578 kts 79°
2026-04-24 19:17 49.09018 168.19392 34808 ft 579 kts 80°
2026-04-24 19:18 49.10684 168.31405 34809 ft 579 kts 80°
2026-04-24 19:18 49.12339 168.43441 34809 ft 579 kts 80°
2026-04-24 19:19 49.13982 168.55481 34809 ft 580 kts 80°
2026-04-24 19:19 49.15615 168.67550 34811 ft 580 kts 80°
2026-04-24 19:20 49.17224 168.79550 34812 ft 581 kts 80°
2026-04-24 19:20 49.18834 168.91654 34812 ft 581 kts 80°
2026-04-24 19:21 49.20431 169.03759 34814 ft 581 kts 80°
2026-04-24 19:21 49.22016 169.15888 34815 ft 581 kts 81°
2026-04-24 19:22 49.23589 169.28018 34820 ft 582 kts 81°
2026-04-24 19:22 49.25151 169.40173 34817 ft 582 kts 81°
2026-04-24 19:23 49.26699 169.52332 34822 ft 582 kts 81°
2026-04-24 19:23 49.28236 169.64501 34821 ft 582 kts 81°
2026-04-24 19:24 49.29761 169.76697 34819 ft 583 kts 81°
2026-04-24 19:24 49.31275 169.88910 34822 ft 583 kts 81°
2026-04-24 19:25 49.32776 170.01130 34825 ft 584 kts 81°
2026-04-24 19:25 49.34255 170.13280 34829 ft 584 kts 81°
2026-04-24 19:26 49.35734 170.25546 34829 ft 584 kts 81°
2026-04-24 19:26 49.37200 170.37816 34827 ft 585 kts 81°
2026-04-24 19:27 49.38653 170.50097 34827 ft 585 kts 81°
2026-04-24 19:27 49.40094 170.62393 34830 ft 585 kts 81°
2026-04-24 19:28 49.41521 170.74694 34832 ft 585 kts 82°
2026-04-24 19:28 49.42937 170.87011 34834 ft 585 kts 82°
2026-04-24 19:29 49.45028 171.05428 34837 ft 586 kts 82°
2026-04-24 19:30 49.46421 171.17854 34836 ft 586 kts 82°
2026-04-24 19:30 49.47784 171.30132 34838 ft 586 kts 82°
2026-04-24 19:31 49.49143 171.42507 34840 ft 587 kts 82°
2026-04-24 19:31 49.50490 171.54892 34843 ft 587 kts 82°
2026-04-24 19:32 49.51824 171.67293 34843 ft 587 kts 82°
2026-04-24 19:32 49.53145 171.79699 34846 ft 588 kts 82°
2026-04-24 19:33 49.54455 171.92134 34845 ft 588 kts 82°
2026-04-24 19:33 49.55751 172.04560 34848 ft 588 kts 82°
2026-04-24 19:34 49.57032 172.16992 34850 ft 588 kts 82°
2026-04-24 19:34 49.58303 172.29450 34852 ft 589 kts 82°
2026-04-24 19:35 49.59560 172.41925 34856 ft 589 kts 83°
2026-04-24 19:35 49.60595 172.52294 34856 ft 590 kts 83°
2026-04-24 19:36 49.61831 172.64803 34857 ft 590 kts 83°
2026-04-24 19:36 49.63053 172.77318 34859 ft 590 kts 83°
2026-04-24 19:37 49.64457 172.91878 34862 ft 590 kts 83°
2026-04-24 19:37 49.65651 173.04421 34864 ft 591 kts 83°
2026-04-24 19:38 49.66640 173.14917 34865 ft 591 kts 83°
2026-04-24 19:38 49.67802 173.27398 34866 ft 591 kts 83°
2026-04-24 19:39 49.68959 173.39963 34866 ft 591 kts 83°
2026-04-24 19:39 49.70100 173.52519 34873 ft 591 kts 83°
2026-04-24 19:40 49.71230 173.65102 34871 ft 591 kts 83°
2026-04-24 19:40 49.72345 173.77682 34874 ft 591 kts 83°
2026-04-24 19:41 49.73447 173.90274 34876 ft 591 kts 83°
2026-04-24 19:41 49.74535 174.02866 34881 ft 591 kts 83°
2026-04-24 19:42 49.75611 174.15490 34881 ft 591 kts 83°
2026-04-24 19:42 49.76673 174.28108 34882 ft 592 kts 83°
2026-04-24 19:43 49.77714 174.40645 34887 ft 592 kts 84°
2026-04-24 19:43 49.78749 174.53283 34888 ft 592 kts 84°
2026-04-24 19:44 49.79770 174.65927 34890 ft 592 kts 84°
2026-04-24 19:44 49.80777 174.78572 34896 ft 592 kts 84°
2026-04-24 19:45 49.81773 174.91242 34896 ft 592 kts 84°
2026-04-24 19:45 49.82752 175.03897 34902 ft 592 kts 84°
2026-04-24 19:46 49.83718 175.16556 34904 ft 592 kts 84°
2026-04-24 19:46 49.84671 175.29227 34901 ft 592 kts 84°
2026-04-24 19:47 49.85609 175.41893 34899 ft 592 kts 84°
2026-04-24 19:47 49.86533 175.54575 34903 ft 592 kts 84°
2026-04-24 19:48 49.87444 175.67247 34910 ft 592 kts 84°
2026-04-24 19:48 49.88785 175.86293 34913 ft 592 kts 84°
2026-04-24 19:49 49.90518 176.11596 34914 ft 592 kts 84°
2026-04-24 19:50 49.92200 176.37000 34919 ft 592 kts 84°
2026-04-24 19:51 49.93426 176.56061 34919 ft 592 kts 84°
2026-04-24 19:52 49.94620 176.75139 34925 ft 592 kts 85°
2026-04-24 19:52 49.95395 176.87787 34926 ft 592 kts 85°
2026-04-24 19:53 49.96160 177.00511 34929 ft 592 kts 85°
2026-04-24 19:54 49.97282 177.19617 34937 ft 592 kts 85°
2026-04-24 19:54 49.98011 177.32338 34932 ft 592 kts 85°
2026-04-24 19:55 49.98607 177.42928 34936 ft 591 kts 85°
2026-04-24 19:55 49.99429 177.57810 34937 ft 591 kts 85°
2026-04-24 19:56 50.00116 177.70541 34939 ft 591 kts 85°
2026-04-24 19:56 50.00789 177.83264 34943 ft 591 kts 85°
2026-04-24 19:57 50.01449 177.96013 34947 ft 591 kts 85°
2026-04-24 19:57 50.02094 178.08746 34950 ft 590 kts 85°
2026-04-24 19:58 50.02725 178.21464 34948 ft 590 kts 85°
2026-04-24 19:58 50.03341 178.34184 34949 ft 590 kts 85°
2026-04-24 19:59 50.03940 178.46831 34954 ft 589 kts 85°
2026-04-24 19:59 50.04528 178.59537 34953 ft 589 kts 85°
2026-04-24 20:00 50.05102 178.72262 34956 ft 589 kts 86°
2026-04-24 20:00 50.05663 178.84989 34961 ft 589 kts 86°
2026-04-24 20:01 50.06209 178.97702 34960 ft 589 kts 86°
2026-04-24 20:01 50.06741 179.10429 34962 ft 589 kts 86°
2026-04-24 20:02 50.07173 179.20994 34963 ft 589 kts 86°
2026-04-24 20:02 50.07764 179.35869 34965 ft 589 kts 86°
2026-04-24 20:03 50.08250 179.48504 34966 ft 588 kts 86°
2026-04-24 20:03 50.08726 179.61213 34972 ft 588 kts 86°
2026-04-24 20:04 50.09188 179.73927 34972 ft 587 kts 86°
2026-04-24 20:04 50.09636 179.86631 34971 ft 587 kts 86°
2026-04-24 20:05 50.10069 179.99322 34975 ft 586 kts 86°
2026-04-24 20:05 50.10489 -179.87989 34976 ft 586 kts 86°
2026-04-24 20:06 50.10894 -179.75309 34980 ft 586 kts 86°
2026-04-24 20:06 50.11284 -179.62640 34980 ft 585 kts 87°
2026-04-24 20:07 50.11599 -179.52108 34980 ft 585 kts 87°
2026-04-24 20:07 50.12023 -179.37379 34979 ft 585 kts 87°
2026-04-24 20:08 50.12372 -179.24726 34983 ft 585 kts 87°
2026-04-24 20:08 50.12708 -179.12036 34982 ft 585 kts 87°
2026-04-24 20:09 50.13030 -178.99359 34978 ft 585 kts 87°
2026-04-24 20:09 50.13338 -178.86676 34985 ft 585 kts 87°
2026-04-24 20:10 50.13630 -178.74099 34986 ft 585 kts 87°
2026-04-24 20:10 50.13910 -178.61437 34988 ft 584 kts 88°
2026-04-24 20:11 50.14177 -178.48773 34989 ft 584 kts 88°
2026-04-24 20:11 50.14429 -178.36118 34988 ft 584 kts 88°
2026-04-24 20:12 50.14668 -178.23462 34991 ft 583 kts 88°
2026-04-24 20:12 50.14892 -178.10834 34992 ft 583 kts 88°
2026-04-24 20:13 50.15103 -177.98198 34991 ft 582 kts 88°
2026-04-24 20:13 50.15300 -177.85574 34991 ft 582 kts 88°
2026-04-24 20:14 50.15483 -177.72959 34992 ft 582 kts 88°
2026-04-24 20:14 50.15651 -177.60417 34990 ft 581 kts 88°
2026-04-24 20:15 50.15807 -177.47816 34990 ft 581 kts 88°
2026-04-24 20:15 50.15949 -177.35217 34993 ft 581 kts 88°
2026-04-24 20:16 50.16077 -177.22629 34994 ft 580 kts 88°
2026-04-24 20:16 50.16192 -177.10043 34992 ft 580 kts 89°
2026-04-24 20:17 50.16293 -176.97465 34998 ft 580 kts 89°
2026-04-24 20:17 50.16419 -176.78604 34996 ft 579 kts 89°
2026-04-24 20:18 50.16485 -176.66107 34996 ft 579 kts 89°
2026-04-24 20:18 50.16538 -176.53561 34998 ft 578 kts 89°
2026-04-24 20:19 50.16578 -176.41028 34997 ft 578 kts 89°
2026-04-24 20:19 50.16604 -176.28507 35000 ft 577 kts 89°
2026-04-24 20:20 50.16617 -176.15986 35000 ft 577 kts 89°
2026-04-24 20:20 50.16617 -176.03469 35000 ft 577 kts 89°
2026-04-24 20:21 50.16602 -175.90971 35000 ft 576 kts 89°
2026-04-24 20:21 50.16575 -175.78465 35001 ft 576 kts 89°
2026-04-24 20:22 50.16534 -175.65956 34997 ft 576 kts 90°
2026-04-24 20:22 50.16480 -175.53486 34999 ft 575 kts 90°
2026-04-24 20:23 50.16412 -175.41005 34999 ft 575 kts 90°
2026-04-24 20:23 50.16331 -175.28560 34997 ft 574 kts 90°
2026-04-24 20:24 50.16254 -175.18212 34998 ft 574 kts 90°
2026-04-24 20:24 50.16130 -175.03681 34996 ft 573 kts 90°
2026-04-24 20:25 50.16031 -174.93345 34999 ft 573 kts 90°
2026-04-24 20:25 50.15899 -174.80922 34995 ft 572 kts 90°
2026-04-24 20:26 50.15755 -174.68525 34997 ft 572 kts 90°
2026-04-24 20:26 50.15597 -174.56125 34996 ft 572 kts 90°
2026-04-24 20:27 50.15427 -174.43743 34996 ft 571 kts 90°
2026-04-24 20:27 50.15243 -174.31352 34993 ft 571 kts 91°
2026-04-24 20:28 50.15046 -174.18969 34995 ft 570 kts 91°
2026-04-24 20:28 50.14837 -174.06698 34993 ft 570 kts 91°
2026-04-24 20:29 50.14614 -173.94337 34990 ft 570 kts 91°
2026-04-24 20:29 50.14379 -173.81988 34990 ft 569 kts 91°
2026-04-24 20:30 50.14131 -173.69674 34991 ft 569 kts 91°
2026-04-24 20:30 50.13869 -173.57352 34991 ft 568 kts 91°
2026-04-24 20:31 50.13595 -173.45049 34989 ft 567 kts 91°
2026-04-24 20:31 50.13308 -173.32764 34988 ft 567 kts 91°
2026-04-24 20:32 50.13009 -173.20495 34993 ft 566 kts 91°
2026-04-24 20:32 50.12698 -173.08249 34992 ft 566 kts 91°
2026-04-24 20:33 50.12373 -172.95986 34984 ft 565 kts 92°
2026-04-24 20:33 50.12036 -172.83764 34984 ft 565 kts 92°
2026-04-24 20:34 50.11686 -172.71541 34987 ft 564 kts 92°
2026-04-24 20:34 50.11323 -172.59310 34975 ft 564 kts 92°
2026-04-24 20:35 50.10948 -172.47098 34976 ft 564 kts 92°
2026-04-24 20:35 50.10560 -172.34891 34975 ft 564 kts 92°
2026-04-24 20:36 50.10163 -172.22781 34985 ft 563 kts 92°
2026-04-24 20:36 50.09750 -172.10594 34978 ft 563 kts 92°
2026-04-24 20:37 50.09325 -171.98412 34985 ft 563 kts 92°
2026-04-24 20:37 50.08887 -171.86246 34980 ft 562 kts 92°
2026-04-24 20:38 50.08437 -171.74094 34978 ft 562 kts 93°
2026-04-24 20:38 50.07974 -171.61940 34979 ft 562 kts 93°
2026-04-24 20:39 50.07499 -171.49796 34976 ft 562 kts 93°
2026-04-24 20:39 50.07012 -171.37673 34979 ft 561 kts 93°
2026-04-24 20:40 50.06512 -171.25548 34969 ft 561 kts 93°
2026-04-24 20:40 50.06000 -171.13440 34972 ft 560 kts 93°
2026-04-24 20:41 50.05476 -171.01348 34974 ft 560 kts 94°
2026-04-24 20:41 50.04940 -170.89262 34967 ft 560 kts 94°
2026-04-24 20:42 50.04391 -170.77181 34960 ft 559 kts 94°
2026-04-24 20:42 50.03834 -170.65200 34957 ft 559 kts 94°
2026-04-24 20:43 50.03262 -170.53161 34961 ft 558 kts 94°
2026-04-24 20:43 50.02678 -170.41127 34954 ft 558 kts 94°
2026-04-24 20:44 50.02081 -170.29090 34946 ft 558 kts 94°
2026-04-24 20:44 50.01472 -170.17070 34952 ft 557 kts 94°
2026-04-24 20:45 50.00851 -170.05058 34949 ft 557 kts 94°
2026-04-24 20:45 50.00218 -169.93054 34944 ft 557 kts 94°
2026-04-24 20:46 49.99573 -169.81068 34936 ft 556 kts 95°
2026-04-24 20:46 49.98916 -169.69087 34943 ft 556 kts 95°
2026-04-24 20:47 49.98247 -169.57124 34932 ft 556 kts 95°
2026-04-24 20:47 49.97567 -169.45177 34933 ft 555 kts 95°
2026-04-24 20:48 49.96875 -169.33236 34934 ft 555 kts 95°
2026-04-24 20:48 49.96171 -169.21303 34933 ft 554 kts 95°
2026-04-24 20:49 49.95460 -169.09462 34930 ft 554 kts 95°
2026-04-24 20:49 49.94728 -168.97478 34927 ft 553 kts 95°
2026-04-24 20:50 49.93994 -168.85665 34917 ft 553 kts 96°
2026-04-24 20:50 49.93244 -168.73788 34911 ft 553 kts 96°
2026-04-24 20:51 49.92482 -168.61915 34917 ft 553 kts 96°
2026-04-24 20:51 49.91708 -168.50058 34913 ft 553 kts 96°
2026-04-24 20:52 49.90921 -168.38190 34910 ft 553 kts 96°
2026-04-24 20:52 49.90121 -168.26306 34903 ft 553 kts 96°
2026-04-24 20:53 49.89311 -168.14452 34896 ft 552 kts 96°
2026-04-24 20:53 49.88489 -168.02613 34899 ft 552 kts 96°
2026-04-24 20:54 49.87660 -167.90854 34890 ft 552 kts 96°
2026-04-24 20:54 49.86815 -167.79031 34888 ft 552 kts 97°
2026-04-24 20:55 49.85958 -167.67224 34886 ft 551 kts 97°
2026-04-24 20:55 49.85090 -167.55419 34878 ft 551 kts 97°
2026-04-24 20:56 49.84209 -167.43622 34874 ft 550 kts 97°
2026-04-24 20:56 49.83319 -167.31852 34872 ft 550 kts 97°
2026-04-24 20:57 49.82417 -167.20094 34869 ft 549 kts 97°
2026-04-24 20:57 49.81504 -167.08354 34863 ft 549 kts 97°
2026-04-24 20:58 49.80581 -166.96630 34854 ft 548 kts 97°
2026-04-24 20:58 49.79647 -166.84932 34845 ft 548 kts 98°
2026-04-24 20:59 49.78700 -166.73223 34841 ft 547 kts 98°
2026-04-24 20:59 49.77750 -166.61620 34828 ft 547 kts 98°
2026-04-24 21:00 49.76782 -166.49949 34822 ft 547 kts 98°
2026-04-24 21:00 49.75803 -166.38286 34811 ft 547 kts 98°
2026-04-24 21:01 49.74812 -166.26631 34801 ft 546 kts 98°
2026-04-24 21:01 49.73810 -166.14992 34795 ft 546 kts 98°
2026-04-24 21:02 49.72796 -166.03348 34789 ft 546 kts 98°
2026-04-24 21:02 49.71771 -165.91708 34783 ft 546 kts 99°
2026-04-24 21:03 49.70736 -165.80100 34778 ft 546 kts 99°
2026-04-24 21:03 49.69688 -165.68480 34775 ft 546 kts 99°
2026-04-24 21:04 49.68630 -165.56877 34776 ft 545 kts 99°
2026-04-24 21:04 49.67560 -165.45288 34776 ft 545 kts 99°
2026-04-24 21:05 49.66662 -165.35655 34779 ft 545 kts 99°
2026-04-24 21:05 49.65394 -165.22196 34786 ft 545 kts 99°
2026-04-24 21:06 49.64290 -165.10622 34791 ft 545 kts 99°
2026-04-24 21:06 49.63176 -164.99067 34791 ft 544 kts 100°
2026-04-24 21:07 49.62051 -164.87518 34800 ft 544 kts 100°
2026-04-24 21:07 49.60915 -164.75984 34804 ft 544 kts 100°
2026-04-24 21:08 49.59768 -164.64454 34807 ft 544 kts 100°
2026-04-24 21:08 49.58608 -164.52923 34812 ft 544 kts 100°
2026-04-24 21:09 49.57446 -164.41488 34816 ft 544 kts 100°
2026-04-24 21:09 49.56265 -164.29986 34820 ft 543 kts 101°
2026-04-24 21:10 49.55074 -164.18502 34823 ft 543 kts 101°
2026-04-24 21:10 49.53872 -164.07018 34826 ft 543 kts 101°
2026-04-24 21:11 49.52658 -163.95547 34833 ft 543 kts 101°
2026-04-24 21:11 49.51435 -163.84092 34834 ft 543 kts 101°
2026-04-24 21:12 49.50401 -163.74495 34840 ft 542 kts 101°
2026-04-24 21:12 49.49163 -163.63116 34846 ft 542 kts 101°
2026-04-24 21:13 49.47908 -163.51682 34856 ft 542 kts 101°
2026-04-24 21:13 49.46642 -163.40255 34857 ft 543 kts 102°
2026-04-24 21:14 49.45363 -163.28818 34871 ft 543 kts 102°
2026-04-24 21:14 49.44072 -163.17389 34879 ft 543 kts 102°
2026-04-24 21:15 49.42769 -163.05952 34879 ft 542 kts 102°
2026-04-24 21:15 49.41457 -162.94540 34887 ft 542 kts 102°
2026-04-24 21:16 49.40144 -162.83213 34893 ft 542 kts 102°
2026-04-24 21:16 49.38811 -162.71825 34904 ft 541 kts 102°
2026-04-24 21:17 49.37469 -162.60469 34909 ft 540 kts 102°
2026-04-24 21:17 49.36119 -162.49141 34923 ft 540 kts 102°
2026-04-24 21:18 49.34756 -162.37801 34932 ft 540 kts 103°
2026-04-24 21:18 49.33382 -162.26468 34942 ft 540 kts 103°
2026-04-24 21:19 49.32000 -162.15169 34954 ft 540 kts 103°
2026-04-24 21:19 49.30615 -162.03936 34966 ft 540 kts 103°
2026-04-24 21:20 49.28506 -161.87013 34976 ft 539 kts 103°
2026-04-24 21:21 49.27083 -161.75716 34986 ft 539 kts 103°
2026-04-24 21:21 49.25653 -161.64458 34994 ft 539 kts 103°
2026-04-24 21:22 49.24212 -161.53202 35001 ft 538 kts 103°
2026-04-24 21:22 49.22762 -161.41965 35010 ft 538 kts 103°
2026-04-24 21:23 49.21300 -161.30731 35019 ft 537 kts 103°
2026-04-24 21:23 49.19831 -161.19531 35028 ft 537 kts 103°
2026-04-24 21:24 49.18361 -161.08415 35037 ft 536 kts 104°
2026-04-24 21:24 49.16875 -160.97263 35044 ft 535 kts 104°
2026-04-24 21:25 49.15380 -160.86126 35050 ft 534 kts 104°
2026-04-24 21:25 49.13877 -160.75016 35059 ft 533 kts 104°
2026-04-24 21:26 49.12367 -160.63948 35070 ft 532 kts 104°
2026-04-24 21:26 49.10850 -160.52907 35080 ft 530 kts 104°
2026-04-24 21:27 49.09338 -160.41986 35081 ft 529 kts 104°
2026-04-24 21:27 49.07809 -160.31018 35086 ft 528 kts 104°
2026-04-24 21:28 49.06270 -160.20065 35098 ft 528 kts 104°
2026-04-24 21:28 49.04722 -160.09131 35105 ft 527 kts 104°
2026-04-24 21:29 49.03165 -159.98206 35116 ft 527 kts 105°
2026-04-24 21:29 49.01600 -159.87310 35122 ft 527 kts 105°
2026-04-24 21:30 49.00024 -159.76415 35128 ft 527 kts 105°
2026-04-24 21:30 48.98438 -159.65524 35133 ft 527 kts 105°
2026-04-24 21:31 48.96842 -159.54644 35143 ft 527 kts 105°
2026-04-24 21:31 48.95235 -159.43762 35147 ft 527 kts 105°
2026-04-24 21:32 48.93627 -159.32957 35153 ft 527 kts 105°
2026-04-24 21:32 48.92001 -159.22100 35161 ft 527 kts 105°
2026-04-24 21:33 48.90364 -159.11247 35157 ft 527 kts 106°
2026-04-24 21:33 48.88716 -159.00397 35170 ft 527 kts 106°
2026-04-24 21:34 48.87059 -158.89557 35170 ft 526 kts 106°
2026-04-24 21:34 48.85390 -158.78721 35183 ft 526 kts 106°
2026-04-24 21:35 48.83716 -158.67915 35181 ft 526 kts 106°
2026-04-24 21:35 48.82029 -158.57105 35185 ft 526 kts 106°
2026-04-24 21:36 48.80333 -158.46306 35200 ft 526 kts 106°
2026-04-24 21:36 48.78628 -158.35522 35201 ft 526 kts 106°
2026-04-24 21:37 48.76915 -158.24754 35207 ft 526 kts 107°
2026-04-24 21:37 48.75190 -158.13989 35212 ft 525 kts 107°
2026-04-24 21:38 48.73456 -158.03233 35216 ft 525 kts 107°
2026-04-24 21:38 48.71710 -157.92475 35223 ft 525 kts 107°
2026-04-24 21:39 48.69967 -157.81803 35226 ft 525 kts 107°
2026-04-24 21:39 48.68203 -157.71071 35230 ft 525 kts 107°
2026-04-24 21:40 48.66430 -157.60349 35235 ft 525 kts 107°
2026-04-24 21:40 48.64649 -157.49643 35239 ft 525 kts 107°
2026-04-24 21:41 48.62857 -157.38943 35247 ft 525 kts 107°
2026-04-24 21:41 48.61059 -157.28270 35246 ft 524 kts 107°
2026-04-24 21:42 48.59248 -157.17591 35252 ft 524 kts 107°
2026-04-24 21:42 48.57441 -157.07001 35256 ft 524 kts 107°
2026-04-24 21:43 48.55613 -156.96356 35259 ft 524 kts 107°
2026-04-24 21:43 48.53775 -156.85711 35262 ft 524 kts 107°
2026-04-24 21:44 48.51928 -156.75084 35263 ft 524 kts 108°
2026-04-24 21:44 48.50071 -156.64455 35264 ft 524 kts 108°
2026-04-24 21:45 48.48205 -156.53843 35271 ft 523 kts 108°
2026-04-24 21:45 48.46332 -156.43252 35270 ft 523 kts 108°
2026-04-24 21:46 48.44449 -156.32672 35277 ft 523 kts 108°
2026-04-24 21:46 48.42559 -156.22108 35277 ft 522 kts 108°
2026-04-24 21:47 48.40671 -156.11621 35275 ft 522 kts 108°
2026-04-24 21:47 48.38764 -156.01093 35277 ft 521 kts 108°
2026-04-24 21:48 48.36847 -155.90567 35279 ft 521 kts 108°
2026-04-24 21:48 48.34926 -155.80078 35278 ft 520 kts 108°
2026-04-24 21:49 48.32994 -155.69593 35277 ft 520 kts 108°
2026-04-24 21:49 48.31055 -155.59126 35288 ft 520 kts 108°
2026-04-24 21:50 48.29109 -155.48681 35288 ft 519 kts 109°
2026-04-24 21:50 48.27153 -155.38241 35291 ft 519 kts 109°
2026-04-24 21:51 48.25190 -155.27823 35291 ft 519 kts 109°
2026-04-24 21:51 48.23219 -155.17418 35292 ft 519 kts 109°
2026-04-24 21:52 48.21251 -155.07086 35298 ft 519 kts 109°
2026-04-24 21:52 48.19259 -154.96689 35302 ft 518 kts 109°
2026-04-24 21:53 48.17256 -154.86288 35299 ft 518 kts 109°
2026-04-24 21:53 48.15248 -154.75920 35306 ft 518 kts 109°
2026-04-24 21:54 48.13229 -154.65552 35301 ft 518 kts 109°
2026-04-24 21:54 48.11204 -154.55206 35301 ft 518 kts 109°
2026-04-24 21:55 48.09170 -154.44869 35301 ft 517 kts 109°
2026-04-24 21:55 48.07143 -154.34625 35301 ft 517 kts 109°
2026-04-24 21:56 48.05094 -154.24325 35302 ft 517 kts 109°
2026-04-24 21:56 48.03035 -154.14024 35314 ft 516 kts 109°
2026-04-24 21:57 48.00970 -154.03753 35311 ft 516 kts 110°
2026-04-24 21:57 47.98897 -153.93493 35304 ft 516 kts 110°
2026-04-24 21:58 47.96829 -153.83309 35302 ft 516 kts 110°
2026-04-24 21:58 47.94742 -153.73086 35305 ft 515 kts 110°
2026-04-24 21:59 47.92646 -153.62871 35307 ft 515 kts 110°
2026-04-24 21:59 47.90539 -153.52656 35311 ft 515 kts 110°
2026-04-24 22:00 47.88424 -153.42459 35311 ft 515 kts 110°
2026-04-24 22:00 47.86298 -153.32256 35315 ft 515 kts 110°
2026-04-24 22:01 47.84165 -153.22070 35309 ft 515 kts 110°
2026-04-24 22:01 47.82022 -153.11889 35310 ft 515 kts 110°
2026-04-24 22:02 47.80241 -153.03439 35311 ft 515 kts 110°
2026-04-24 22:02 47.78082 -152.93281 35306 ft 515 kts 110°
2026-04-24 22:03 47.75915 -152.83144 35303 ft 514 kts 110°
2026-04-24 22:03 47.73743 -152.73026 35306 ft 514 kts 110°
2026-04-24 22:04 47.71566 -152.62927 35303 ft 513 kts 111°
2026-04-24 22:04 47.69382 -152.52843 35306 ft 512 kts 111°
2026-04-24 22:05 47.67192 -152.42779 35303 ft 512 kts 111°
2026-04-24 22:05 47.64996 -152.32736 35303 ft 511 kts 111°
2026-04-24 22:06 47.62797 -152.22727 35305 ft 510 kts 111°
2026-04-24 22:06 47.60594 -152.12753 35305 ft 509 kts 111°
2026-04-24 22:07 47.58401 -152.02870 35307 ft 507 kts 112°
2026-04-24 22:07 47.56191 -151.92954 35307 ft 506 kts 112°
2026-04-24 22:08 47.53976 -151.83064 35305 ft 506 kts 112°
2026-04-24 22:08 47.51751 -151.73181 35303 ft 507 kts 112°
2026-04-24 22:09 47.49516 -151.63296 35305 ft 507 kts 112°
2026-04-24 22:09 47.47269 -151.53402 35304 ft 507 kts 112°
2026-04-24 22:10 47.45012 -151.43512 35300 ft 508 kts 112°
2026-04-24 22:10 47.42743 -151.33619 35303 ft 509 kts 112°
2026-04-24 22:11 47.40463 -151.23720 35311 ft 509 kts 112°
2026-04-24 22:11 47.38172 -151.13818 35305 ft 510 kts 113°
2026-04-24 22:12 47.35870 -151.03914 35297 ft 511 kts 113°
2026-04-24 22:12 47.33572 -150.94076 35293 ft 511 kts 113°
2026-04-24 22:13 47.31254 -150.84193 35288 ft 510 kts 113°
2026-04-24 22:13 47.28927 -150.74317 35291 ft 510 kts 113°
2026-04-24 22:14 47.26590 -150.64447 35289 ft 510 kts 113°
2026-04-24 22:14 47.24252 -150.54610 35286 ft 508 kts 113°
2026-04-24 22:15 47.21913 -150.44815 35288 ft 507 kts 113°
2026-04-24 22:15 47.19566 -150.35033 35284 ft 506 kts 113°
2026-04-24 22:16 47.17220 -150.25297 35284 ft 505 kts 113°
2026-04-24 22:16 47.14872 -150.15592 35287 ft 504 kts 113°
2026-04-24 22:17 47.12516 -150.05900 35281 ft 504 kts 113°
2026-04-24 22:17 47.10149 -149.96206 35296 ft 504 kts 113°
2026-04-24 22:18 47.07778 -149.86538 35289 ft 503 kts 113°
2026-04-24 22:18 47.05412 -149.76926 35288 ft 503 kts 114°
2026-04-24 22:19 47.03028 -149.67290 35292 ft 503 kts 114°
2026-04-24 22:19 47.00636 -149.57662 35300 ft 502 kts 114°
2026-04-24 22:20 46.98238 -149.48047 35298 ft 502 kts 114°
2026-04-24 22:20 46.95836 -149.38451 35301 ft 502 kts 114°
2026-04-24 22:21 46.93426 -149.28865 35305 ft 501 kts 114°
2026-04-24 22:21 46.91008 -149.19297 35303 ft 501 kts 114°
2026-04-24 22:22 46.88584 -149.09746 35308 ft 501 kts 114°
2026-04-24 22:22 46.86157 -149.00219 35306 ft 500 kts 114°
2026-04-24 22:23 46.83722 -148.90699 35310 ft 500 kts 114°
2026-04-24 22:23 46.81303 -148.81278 35325 ft 499 kts 114°
2026-04-24 22:24 46.78859 -148.71801 35322 ft 498 kts 114°
2026-04-24 22:24 46.76408 -148.62336 35332 ft 498 kts 114°
2026-04-24 22:25 46.73957 -148.52908 35329 ft 497 kts 114°
2026-04-24 22:25 46.71497 -148.43487 35332 ft 497 kts 114°
2026-04-24 22:26 46.69036 -148.34098 35336 ft 497 kts 114°
2026-04-24 22:26 46.66564 -148.24706 35339 ft 496 kts 114°
2026-04-24 22:27 46.64087 -148.15336 35346 ft 496 kts 113°
2026-04-24 22:27 46.61602 -148.05967 35347 ft 496 kts 114°
2026-04-24 22:28 46.59123 -147.96667 35349 ft 496 kts 113°
2026-04-24 22:28 46.56619 -147.87295 35351 ft 496 kts 113°
2026-04-24 22:29 46.52851 -147.73271 35356 ft 497 kts 113°
2026-04-24 22:29 46.50324 -147.63926 35354 ft 497 kts 113°
2026-04-24 22:30 46.47807 -147.54640 35366 ft 498 kts 113°
2026-04-24 22:30 46.45268 -147.45304 35376 ft 498 kts 113°
2026-04-24 22:31 46.42712 -147.35952 35372 ft 498 kts 113°
2026-04-24 22:31 46.40146 -147.26607 35371 ft 499 kts 113°
2026-04-24 22:32 46.37575 -147.17267 35378 ft 500 kts 113°
2026-04-24 22:32 46.34992 -147.07922 35374 ft 500 kts 113°
2026-04-24 22:33 46.32399 -146.98578 35384 ft 501 kts 113°
2026-04-24 22:33 46.29792 -146.89236 35384 ft 501 kts 112°
2026-04-24 22:34 46.27189 -146.79941 35391 ft 502 kts 112°
2026-04-24 22:34 46.24565 -146.70590 35392 ft 502 kts 112°
2026-04-24 22:35 46.21927 -146.61233 35398 ft 503 kts 112°
2026-04-24 22:35 46.19282 -146.51889 35401 ft 503 kts 112°
2026-04-24 22:36 46.16625 -146.42536 35405 ft 504 kts 112°
2026-04-24 22:36 46.13959 -146.33187 35404 ft 503 kts 112°
2026-04-24 22:37 46.11291 -146.23864 35407 ft 503 kts 112°
2026-04-24 22:37 46.08617 -146.14553 35411 ft 502 kts 111°
2026-04-24 22:38 46.05936 -146.05274 35413 ft 502 kts 111°
2026-04-24 22:38 46.03247 -145.95992 35414 ft 502 kts 111°
2026-04-24 22:39 46.00560 -145.86737 35419 ft 502 kts 111°
2026-04-24 22:39 45.97861 -145.77477 35414 ft 501 kts 111°
2026-04-24 22:40 45.95156 -145.68240 35420 ft 501 kts 111°
2026-04-24 22:40 45.92461 -145.59069 35420 ft 501 kts 111°
2026-04-24 22:41 45.89742 -145.49850 35430 ft 502 kts 111°
2026-04-24 22:41 45.87454 -145.42117 35429 ft 502 kts 111°
2026-04-24 22:42 45.84267 -145.31390 35434 ft 503 kts 111°
2026-04-24 22:42 45.81517 -145.22168 35433 ft 503 kts 111°
2026-04-24 22:43 45.78756 -145.12946 35440 ft 504 kts 111°
2026-04-24 22:43 45.75984 -145.03722 35437 ft 504 kts 111°
2026-04-24 22:44 45.73200 -144.94489 35442 ft 505 kts 111°
2026-04-24 22:44 45.70409 -144.85265 35446 ft 505 kts 111°
2026-04-24 22:45 45.67608 -144.76046 35449 ft 506 kts 111°
2026-04-24 22:45 45.64816 -144.66889 35453 ft 506 kts 111°
2026-04-24 22:46 45.61998 -144.57680 35448 ft 506 kts 111°
2026-04-24 22:46 45.59172 -144.48477 35456 ft 506 kts 111°
2026-04-24 22:47 45.56335 -144.39270 35453 ft 506 kts 111°
2026-04-24 22:47 45.53969 -144.31621 35453 ft 506 kts 111°
2026-04-24 22:48 45.50636 -144.20884 35454 ft 507 kts 111°
2026-04-24 22:48 45.47776 -144.11702 35461 ft 507 kts 111°
2026-04-24 22:49 45.44906 -144.02523 35468 ft 507 kts 111°
2026-04-24 22:49 45.42513 -143.94894 35458 ft 507 kts 111°
2026-04-24 22:50 45.39628 -143.85730 35468 ft 508 kts 111°
2026-04-24 22:50 45.36732 -143.76560 35470 ft 508 kts 110°
2026-04-24 22:51 45.33828 -143.67400 35466 ft 509 kts 110°
2026-04-24 22:51 45.30911 -143.58228 35468 ft 509 kts 110°
2026-04-24 22:52 45.27987 -143.49072 35472 ft 509 kts 110°
2026-04-24 22:52 45.25054 -143.39915 35474 ft 510 kts 110°
2026-04-24 22:53 45.22106 -143.30747 35473 ft 510 kts 110°
2026-04-24 22:53 45.19152 -143.21588 35480 ft 510 kts 110°
2026-04-24 22:54 45.16189 -143.12436 35476 ft 511 kts 110°
2026-04-24 22:54 45.13236 -143.03346 35476 ft 511 kts 110°
2026-04-24 22:55 45.10259 -142.94214 35489 ft 511 kts 110°
2026-04-24 22:55 45.07270 -142.85079 35483 ft 511 kts 110°
2026-04-24 22:56 45.04276 -142.75959 35486 ft 511 kts 110°
2026-04-24 22:56 45.01295 -142.66909 35483 ft 511 kts 110°
2026-04-24 22:57 44.98291 -142.57823 35485 ft 511 kts 110°
2026-04-24 22:57 44.95278 -142.48740 35486 ft 511 kts 110°
2026-04-24 22:58 44.92258 -142.39667 35487 ft 510 kts 110°
2026-04-24 22:58 44.89232 -142.30606 35494 ft 510 kts 110°
2026-04-24 22:59 44.86201 -142.21560 35490 ft 510 kts 111°
2026-04-24 23:00 44.81639 -142.08007 35486 ft 510 kts 111°
2026-04-24 23:00 44.78588 -141.98979 35487 ft 510 kts 111°
2026-04-24 23:01 44.75530 -141.89961 35494 ft 510 kts 111°
2026-04-24 23:01 44.72465 -141.80952 35497 ft 510 kts 111°
2026-04-24 23:02 44.69418 -141.72028 35495 ft 510 kts 111°
2026-04-24 23:02 44.66340 -141.63044 35500 ft 510 kts 111°
2026-04-24 23:03 44.63259 -141.54075 35490 ft 509 kts 111°
2026-04-24 23:03 44.60174 -141.45130 35486 ft 509 kts 111°
2026-04-24 23:04 44.57087 -141.36208 35485 ft 508 kts 112°
2026-04-24 23:04 44.53996 -141.27305 35488 ft 508 kts 112°
2026-04-24 23:05 44.50902 -141.18418 35486 ft 508 kts 112°
2026-04-24 23:05 44.47796 -141.09529 35482 ft 507 kts 112°
2026-04-24 23:06 44.44688 -141.00661 35481 ft 507 kts 112°
2026-04-24 23:06 44.41577 -140.91818 35484 ft 506 kts 112°
2026-04-24 23:07 44.38482 -140.83044 35482 ft 506 kts 113°
2026-04-24 23:07 44.35364 -140.74238 35480 ft 505 kts 113°
2026-04-24 23:08 44.32237 -140.65432 35477 ft 505 kts 113°
2026-04-24 23:08 44.29114 -140.56666 35479 ft 504 kts 113°
2026-04-24 23:09 44.25983 -140.47906 35479 ft 504 kts 114°
2026-04-24 23:09 44.22847 -140.39160 35478 ft 504 kts 114°
2026-04-24 23:10 44.19708 -140.30432 35474 ft 503 kts 114°
2026-04-24 23:10 44.16560 -140.21709 35475 ft 503 kts 114°
2026-04-24 23:11 44.13410 -140.13007 35471 ft 503 kts 114°
2026-04-24 23:11 44.10256 -140.04321 35469 ft 503 kts 115°
2026-04-24 23:12 44.07101 -139.95662 35465 ft 502 kts 115°
2026-04-24 23:12 44.03954 -139.87048 35466 ft 502 kts 115°
2026-04-24 23:13 44.00785 -139.78406 35467 ft 502 kts 115°
2026-04-24 23:13 43.97615 -139.69784 35463 ft 501 kts 115°
2026-04-24 23:14 43.94445 -139.61189 35459 ft 500 kts 115°
2026-04-24 23:14 43.91271 -139.52611 35460 ft 499 kts 116°
2026-04-24 23:15 43.88093 -139.44048 35456 ft 499 kts 116°
2026-04-24 23:15 43.84916 -139.35513 35453 ft 498 kts 116°
2026-04-24 23:16 43.81733 -139.26992 35452 ft 497 kts 116°
2026-04-24 23:16 43.78551 -139.18496 35448 ft 497 kts 116°
2026-04-24 23:17 43.75364 -139.10016 35446 ft 496 kts 116°
2026-04-24 23:17 43.72193 -139.01601 35444 ft 496 kts 116°
2026-04-24 23:18 43.68999 -138.93145 35446 ft 496 kts 116°
2026-04-24 23:18 43.65799 -138.84698 35443 ft 496 kts 116°
2026-04-24 23:19 43.62595 -138.76266 35445 ft 496 kts 117°
2026-04-24 23:19 43.59377 -138.67848 35440 ft 496 kts 117°
2026-04-24 23:20 43.56162 -138.59438 35434 ft 496 kts 117°
2026-04-24 23:20 43.52941 -138.51031 35434 ft 495 kts 117°
2026-04-24 23:21 43.49720 -138.42662 35434 ft 495 kts 117°
2026-04-24 23:21 43.46492 -138.34300 35433 ft 494 kts 117°
2026-04-24 23:22 43.43260 -138.25958 35430 ft 493 kts 117°
2026-04-24 23:22 43.40031 -138.17643 35430 ft 493 kts 118°
2026-04-24 23:23 43.36797 -138.09338 35426 ft 492 kts 118°
2026-04-24 23:23 43.33556 -138.01038 35423 ft 492 kts 118°
2026-04-24 23:24 43.30317 -137.92770 35419 ft 491 kts 118°
2026-04-24 23:24 43.27092 -137.84561 35418 ft 491 kts 118°
2026-04-24 23:25 43.23847 -137.76323 35412 ft 490 kts 118°
2026-04-24 23:25 43.20599 -137.68102 35414 ft 489 kts 118°
2026-04-24 23:26 43.17352 -137.59907 35409 ft 489 kts 118°
2026-04-24 23:26 43.14105 -137.51733 35406 ft 488 kts 119°
2026-04-24 23:27 43.10857 -137.43584 35403 ft 487 kts 119°
2026-04-24 23:27 43.07612 -137.35464 35403 ft 486 kts 119°
2026-04-24 23:28 43.04366 -137.27367 35403 ft 485 kts 119°
2026-04-24 23:28 43.01119 -137.19286 35395 ft 484 kts 119°
2026-04-24 23:29 42.97888 -137.11269 35391 ft 484 kts 119°
2026-04-24 23:29 42.94637 -137.03224 35386 ft 484 kts 119°
2026-04-24 23:30 42.91395 -136.95222 35376 ft 476 kts 119°
2026-04-24 23:30 42.88221 -136.87408 35391 ft 467 kts 119°
2026-04-24 23:31 42.85075 -136.79686 35391 ft 466 kts 119°
2026-04-24 23:31 42.81921 -136.71970 35375 ft 466 kts 119°
2026-04-24 23:32 42.78764 -136.64261 35368 ft 466 kts 119°
2026-04-24 23:32 42.75603 -136.56566 35367 ft 466 kts 119°
2026-04-24 23:33 42.72436 -136.48875 35366 ft 466 kts 119°
2026-04-24 23:33 42.69287 -136.41249 35363 ft 466 kts 119°
2026-04-24 23:34 42.66114 -136.33585 35359 ft 465 kts 119°
2026-04-24 23:34 42.62933 -136.25923 35359 ft 466 kts 119°
2026-04-24 23:35 42.59745 -136.18262 35355 ft 466 kts 119°
2026-04-24 23:35 42.56552 -136.10610 35355 ft 466 kts 119°
2026-04-24 23:36 42.53893 -136.04253 35352 ft 466 kts 120°
2026-04-24 23:36 42.50690 -135.96615 35347 ft 466 kts 119°
2026-04-24 23:37 42.46961 -135.87742 35344 ft 466 kts 120°
2026-04-24 23:37 42.42137 -135.76310 35342 ft 466 kts 120°
2026-04-24 23:38 42.39457 -135.69977 35336 ft 466 kts 120°
2026-04-24 23:38 42.36228 -135.62366 35333 ft 466 kts 120°
2026-04-24 23:39 42.32997 -135.54769 35333 ft 466 kts 120°
2026-04-24 23:39 42.29761 -135.47180 35327 ft 466 kts 120°
2026-04-24 23:40 42.26521 -135.39600 35325 ft 466 kts 120°
2026-04-24 23:40 42.23275 -135.32025 35319 ft 466 kts 120°
2026-04-24 23:41 42.20026 -135.24462 35319 ft 466 kts 120°
2026-04-24 23:41 42.16770 -135.16905 35317 ft 466 kts 120°
2026-04-24 23:42 42.13506 -135.09347 35312 ft 466 kts 120°
2026-04-24 23:42 42.10240 -135.01804 35312 ft 466 kts 120°
2026-04-24 23:43 42.06966 -134.94262 35307 ft 466 kts 120°
2026-04-24 23:43 42.03688 -134.86730 35305 ft 466 kts 120°
2026-04-24 23:44 42.00432 -134.79267 35301 ft 466 kts 120°
2026-04-24 23:44 41.97144 -134.71748 35298 ft 466 kts 120°
2026-04-24 23:45 41.93853 -134.64244 35300 ft 467 kts 120°
2026-04-24 23:45 41.90554 -134.56738 35294 ft 467 kts 120°
2026-04-24 23:46 41.87244 -134.49227 35290 ft 467 kts 120°
2026-04-24 23:46 41.83934 -134.41734 35287 ft 467 kts 120°
2026-04-24 23:47 41.80615 -134.34242 35284 ft 467 kts 120°
2026-04-24 23:47 41.77294 -134.26763 35281 ft 467 kts 120°
2026-04-24 23:48 41.73963 -134.19280 35276 ft 467 kts 120°
2026-04-24 23:48 41.70649 -134.11854 35275 ft 467 kts 121°
2026-04-24 23:49 41.67312 -134.04393 35270 ft 467 kts 121°
2026-04-24 23:49 41.63968 -133.96938 35269 ft 468 kts 121°
2026-04-24 23:50 41.60612 -133.89471 35265 ft 468 kts 121°
2026-04-24 23:50 41.57255 -133.82021 35262 ft 468 kts 121°
2026-04-24 23:51 41.53893 -133.74579 35263 ft 468 kts 121°
2026-04-24 23:51 41.50523 -133.67140 35258 ft 469 kts 121°
2026-04-24 23:52 41.47143 -133.59695 35260 ft 469 kts 121°
2026-04-24 23:52 41.43750 -133.52243 35255 ft 470 kts 121°
2026-04-24 23:53 41.40352 -133.44798 35250 ft 470 kts 121°
2026-04-24 23:53 41.36942 -133.37341 35247 ft 471 kts 121°
2026-04-24 23:54 41.33554 -133.29949 35246 ft 471 kts 121°
2026-04-24 23:54 41.30140 -133.22523 35243 ft 471 kts 121°
2026-04-24 23:55 41.26720 -133.15101 35239 ft 471 kts 121°
2026-04-24 23:55 41.23293 -133.07680 35239 ft 471 kts 121°
2026-04-24 23:56 41.19854 -133.00251 35240 ft 472 kts 121°
2026-04-24 23:56 41.16411 -132.92834 35233 ft 472 kts 121°
2026-04-24 23:57 41.12956 -132.85414 35230 ft 473 kts 121°
2026-04-24 23:57 41.09499 -132.77999 35231 ft 473 kts 121°
2026-04-24 23:58 41.06030 -132.70575 35227 ft 474 kts 121°
2026-04-24 23:58 41.02545 -132.63140 35229 ft 475 kts 122°
2026-04-24 23:59 40.99056 -132.55717 35228 ft 475 kts 122°
2026-04-24 23:59 40.95562 -132.48299 35224 ft 475 kts 122°
2026-04-25 00:00 40.92082 -132.40929 35217 ft 475 kts 122°
2026-04-25 00:00 40.88582 -132.33534 35220 ft 475 kts 122°
2026-04-25 00:01 40.85074 -132.26137 35221 ft 476 kts 122°
2026-04-25 00:01 40.81552 -132.18728 35213 ft 477 kts 122°
2026-04-25 00:02 40.78017 -132.11312 35214 ft 478 kts 122°
2026-04-25 00:02 40.74467 -132.03882 35214 ft 478 kts 122°
2026-04-25 00:03 40.70908 -131.96450 35209 ft 479 kts 122°
2026-04-25 00:03 40.67364 -131.89073 35209 ft 479 kts 122°
2026-04-25 00:04 40.63798 -131.81657 35206 ft 480 kts 122°
2026-04-25 00:04 40.60215 -131.74229 35204 ft 481 kts 122°
2026-04-25 00:05 40.56613 -131.66781 35201 ft 482 kts 122°
2026-04-25 00:05 40.53004 -131.59336 35200 ft 483 kts 122°
2026-04-25 00:06 40.49384 -131.51885 35199 ft 484 kts 122°
2026-04-25 00:06 40.45744 -131.44411 35194 ft 486 kts 122°
2026-04-25 00:07 40.42118 -131.36983 35193 ft 488 kts 122°
2026-04-25 00:07 40.38450 -131.29488 35191 ft 489 kts 122°
2026-04-25 00:08 40.34769 -131.21985 35185 ft 489 kts 122°
2026-04-25 00:08 40.31077 -131.14480 35183 ft 490 kts 122°
2026-04-25 00:09 40.27373 -131.06966 35182 ft 491 kts 123°
2026-04-25 00:09 40.23659 -130.99447 35180 ft 492 kts 123°
2026-04-25 00:10 40.19932 -130.91923 35179 ft 494 kts 123°
2026-04-25 00:10 40.16185 -130.84376 35177 ft 496 kts 123°
2026-04-25 00:11 40.13055 -130.78089 35172 ft 497 kts 123°
2026-04-25 00:11 40.08668 -130.69293 35169 ft 497 kts 123°
2026-04-25 00:12 40.04885 -130.61730 35168 ft 498 kts 123°
2026-04-25 00:12 40.01081 -130.54142 35166 ft 499 kts 123°
2026-04-25 00:13 39.97270 -130.46561 35166 ft 501 kts 123°
2026-04-25 00:13 39.93440 -130.38958 35161 ft 502 kts 124°
2026-04-25 00:14 39.89596 -130.31346 35160 ft 503 kts 124°
2026-04-25 00:14 39.85749 -130.23738 35158 ft 503 kts 124°
2026-04-25 00:15 39.81918 -130.16188 35156 ft 503 kts 124°
2026-04-25 00:15 39.78054 -130.08594 35151 ft 504 kts 124°
2026-04-25 00:16 39.74181 -130.00999 35152 ft 504 kts 124°
2026-04-25 00:16 39.70305 -129.93411 35148 ft 504 kts 124°
2026-04-25 00:17 39.66423 -129.85834 35146 ft 504 kts 124°
2026-04-25 00:17 39.62537 -129.78266 35145 ft 504 kts 124°
2026-04-25 00:18 39.58642 -129.70698 35142 ft 504 kts 124°
2026-04-25 00:18 39.54746 -129.63148 35136 ft 504 kts 125°
2026-04-25 00:19 39.50842 -129.55601 35137 ft 504 kts 125°
2026-04-25 00:19 39.47593 -129.49334 35139 ft 504 kts 125°
2026-04-25 00:20 39.43015 -129.40524 35136 ft 504 kts 125°
2026-04-25 00:20 39.39097 -129.33000 35133 ft 505 kts 125°
2026-04-25 00:21 39.35171 -129.25478 35128 ft 504 kts 125°
2026-04-25 00:21 39.31245 -129.17976 35127 ft 504 kts 125°
2026-04-25 00:22 39.27315 -129.10486 35123 ft 504 kts 126°
2026-04-25 00:22 39.23405 -129.03050 35121 ft 503 kts 126°
2026-04-25 00:23 39.19470 -128.95585 35121 ft 503 kts 126°
2026-04-25 00:23 39.15534 -128.88133 35117 ft 503 kts 126°
2026-04-25 00:24 39.11590 -128.80683 35121 ft 503 kts 126°
2026-04-25 00:24 39.07643 -128.73246 35113 ft 503 kts 126°
2026-04-25 00:25 39.04360 -128.67074 35112 ft 502 kts 126°
2026-04-25 00:25 39.00410 -128.59663 35109 ft 502 kts 126°
2026-04-25 00:26 38.96450 -128.52250 35105 ft 502 kts 126°
2026-04-25 00:26 38.92495 -128.44864 35099 ft 502 kts 126°
2026-04-25 00:27 38.88539 -128.37492 35098 ft 501 kts 126°
2026-04-25 00:27 38.84574 -128.30120 35096 ft 501 kts 126°
2026-04-25 00:28 38.80608 -128.22763 35102 ft 501 kts 127°
2026-04-25 00:28 38.76660 -128.15456 35095 ft 501 kts 127°
2026-04-25 00:29 38.72689 -128.08124 35100 ft 501 kts 127°
2026-04-25 00:29 38.68710 -128.00794 35099 ft 501 kts 127°
2026-04-25 00:30 38.64728 -127.93475 35098 ft 501 kts 127°
2026-04-25 00:30 38.60745 -127.86171 35094 ft 500 kts 127°
2026-04-25 00:31 38.56758 -127.78874 35096 ft 500 kts 127°
2026-04-25 00:31 38.52769 -127.71591 35082 ft 500 kts 127°
2026-04-25 00:32 38.48775 -127.64314 35082 ft 500 kts 127°
2026-04-25 00:32 38.44771 -127.57037 35076 ft 500 kts 127°
2026-04-25 00:33 38.40769 -127.49778 35087 ft 501 kts 127°
2026-04-25 00:33 38.36779 -127.42559 35077 ft 501 kts 127°
2026-04-25 00:34 38.32764 -127.35309 35080 ft 501 kts 127°
2026-04-25 00:34 38.28731 -127.28044 35081 ft 501 kts 127°
2026-04-25 00:35 38.24703 -127.20803 35077 ft 502 kts 128°
2026-04-25 00:35 38.20666 -127.13564 35075 ft 502 kts 128°
2026-04-25 00:36 38.16623 -127.06328 35072 ft 502 kts 128°
2026-04-25 00:36 38.13115 -126.98688 35070 ft 507 kts 114°
2026-04-25 00:37 38.11004 -126.90115 35071 ft 510 kts 107°
2026-04-25 00:37 38.09346 -126.81334 35064 ft 511 kts 104°
2026-04-25 00:38 38.07750 -126.72535 35064 ft 512 kts 105°
2026-04-25 00:38 38.06091 -126.63744 35063 ft 512 kts 105°
2026-04-25 00:39 38.04386 -126.54969 35059 ft 512 kts 105°
2026-04-25 00:39 38.02664 -126.46207 35060 ft 513 kts 106°
2026-04-25 00:40 38.00934 -126.37430 35053 ft 513 kts 106°
2026-04-25 00:40 37.99198 -126.28651 35053 ft 513 kts 106°
2026-04-25 00:41 37.97455 -126.19869 35054 ft 514 kts 106°
2026-04-25 00:41 37.95703 -126.11073 35050 ft 515 kts 106°
2026-04-25 00:42 37.93944 -126.02283 35046 ft 515 kts 106°
2026-04-25 00:42 37.92175 -125.93482 35048 ft 516 kts 106°
2026-04-25 00:43 37.90411 -125.84743 35042 ft 516 kts 106°
2026-04-25 00:43 37.88625 -125.75929 35041 ft 517 kts 106°
2026-04-25 00:44 37.86831 -125.67115 35038 ft 517 kts 106°
2026-04-25 00:44 37.85031 -125.58305 35033 ft 517 kts 106°
2026-04-25 00:45 37.83223 -125.49492 35034 ft 518 kts 107°
2026-04-25 00:45 37.81406 -125.40674 35034 ft 518 kts 107°
2026-04-25 00:46 37.79580 -125.31846 35029 ft 519 kts 107°
2026-04-25 00:47 37.76824 -125.18596 35027 ft 520 kts 107°
2026-04-25 00:47 37.74989 -125.09813 35022 ft 520 kts 107°
2026-04-25 00:48 37.73134 -125.00975 35019 ft 521 kts 107°
2026-04-25 00:48 37.71272 -124.92139 35018 ft 521 kts 107°
2026-04-25 00:49 37.69401 -124.83293 35018 ft 521 kts 107°
2026-04-25 00:49 37.67522 -124.74445 35014 ft 522 kts 107°
2026-04-25 00:50 37.65634 -124.65596 35012 ft 522 kts 107°
2026-04-25 00:50 37.63740 -124.56749 35010 ft 523 kts 107°
2026-04-25 00:51 37.61835 -124.47887 35008 ft 524 kts 107°
2026-04-25 00:51 37.59920 -124.39016 35009 ft 524 kts 107°
2026-04-25 00:52 37.57999 -124.30150 35005 ft 524 kts 107°
2026-04-25 00:52 37.56070 -124.21285 35003 ft 524 kts 107°
2026-04-25 00:53 37.54134 -124.12419 35002 ft 525 kts 107°
2026-04-25 00:53 37.52188 -124.03546 35002 ft 525 kts 107°
2026-04-25 00:54 37.50235 -123.94674 35001 ft 525 kts 108°
2026-04-25 00:54 37.48277 -123.85813 34997 ft 526 kts 108°
2026-04-25 00:55 37.46321 -123.77000 34995 ft 527 kts 108°
2026-04-25 00:55 37.44342 -123.68113 34992 ft 527 kts 108°
2026-04-25 00:56 37.42356 -123.59229 34992 ft 528 kts 108°
2026-04-25 00:56 37.40361 -123.50342 34992 ft 528 kts 108°
2026-04-25 00:57 37.38359 -123.41460 34991 ft 528 kts 108°
2026-04-25 00:57 37.36347 -123.32564 34989 ft 528 kts 108°
2026-04-25 00:58 37.34329 -123.23676 34988 ft 529 kts 108°
2026-04-25 00:58 37.32305 -123.14796 34988 ft 529 kts 108°
2026-04-25 00:59 37.30270 -123.05901 34985 ft 530 kts 108°
2026-04-25 00:59 37.28223 -122.96989 34983 ft 531 kts 108°
2026-04-25 01:00 37.26012 -122.88152 34987 ft 529 kts 115°
2026-04-25 01:00 37.22420 -122.80168 34982 ft 524 kts 127°
2026-04-25 01:01 37.18295 -122.72617 34982 ft 524 kts 129°
2026-04-25 01:01 37.14064 -122.65179 34979 ft 525 kts 129°
2026-04-25 01:02 37.09830 -122.57705 34983 ft 526 kts 129°
2026-04-25 01:02 37.05643 -122.50255 34988 ft 527 kts 129°
2026-04-25 01:03 37.01429 -122.42741 34990 ft 528 kts 129°
2026-04-25 01:03 36.97179 -122.35177 34991 ft 528 kts 129°
2026-04-25 01:04 36.92947 -122.27665 34991 ft 529 kts 129°
2026-04-25 01:04 36.88725 -122.20189 34991 ft 530 kts 129°
2026-04-25 01:05 36.84468 -122.12667 34985 ft 531 kts 129°
2026-04-25 01:05 36.80202 -122.05149 35000 ft 532 kts 130°
2026-04-25 01:06 36.75917 -121.97612 35008 ft 533 kts 130°
2026-04-25 01:06 36.71611 -121.90057 35004 ft 534 kts 130°
2026-04-25 01:07 36.67298 -121.82505 35007 ft 535 kts 130°
2026-04-25 01:07 36.62975 -121.74953 35007 ft 536 kts 130°
2026-04-25 01:08 36.58646 -121.67404 34999 ft 536 kts 130°
2026-04-25 01:08 36.54307 -121.59857 34991 ft 537 kts 130°
2026-04-25 01:09 36.49962 -121.52306 35000 ft 537 kts 131°
2026-04-25 01:09 36.45601 -121.44757 34993 ft 538 kts 131°
2026-04-25 01:10 36.41971 -121.38490 34986 ft 538 kts 131°
2026-04-25 01:10 36.37582 -121.30926 34974 ft 540 kts 131°
2026-04-25 01:11 36.33194 -121.23373 34962 ft 539 kts 131°
2026-04-25 01:11 36.28825 -121.15871 34955 ft 540 kts 131°
2026-04-25 01:12 36.23676 -121.07052 34945 ft 540 kts 131°
2026-04-25 01:12 36.20007 -121.00781 34937 ft 541 kts 132°
2026-04-25 01:13 36.15591 -120.93246 34935 ft 541 kts 132°
2026-04-25 01:13 36.11899 -120.86963 34931 ft 541 kts 132°
2026-04-25 01:14 36.07458 -120.79419 34927 ft 541 kts 132°
2026-04-25 01:14 36.03021 -120.71897 34923 ft 542 kts 132°
2026-04-25 01:15 35.98567 -120.64360 34926 ft 543 kts 132°
2026-04-25 01:15 35.94146 -120.56897 34934 ft 543 kts 133°
2026-04-25 01:16 35.89679 -120.49377 34945 ft 543 kts 133°
2026-04-25 01:16 35.85214 -120.41876 34940 ft 543 kts 133°
2026-04-25 01:17 35.80738 -120.34369 34937 ft 543 kts 133°
2026-04-25 01:17 35.76250 -120.26862 34927 ft 543 kts 133°
2026-04-25 01:18 35.71762 -120.19370 34915 ft 543 kts 133°
2026-04-25 01:18 35.67200 -120.11999 34909 ft 535 kts 141°
2026-04-25 01:18 35.64451 -120.08994 34917 ft 523 kts 150°
2026-04-25 01:19 35.61545 -120.06327 34907 ft 521 kts 152°
2026-04-25 01:19 35.55668 -120.01157 34824 ft 518 kts 153°
2026-04-25 01:19 35.52742 -119.98601 34588 ft 518 kts 153°
2026-04-25 01:20 35.49801 -119.96034 34347 ft 519 kts 153°
2026-04-25 01:20 35.46857 -119.93464 34102 ft 519 kts 153°
2026-04-25 01:20 35.43916 -119.90895 33850 ft 519 kts 154°
2026-04-25 01:20 35.40966 -119.88339 33588 ft 519 kts 154°
2026-04-25 01:21 35.38016 -119.85785 33315 ft 520 kts 154°
2026-04-25 01:21 35.35059 -119.83222 33039 ft 520 kts 154°
2026-04-25 01:21 35.32101 -119.80656 32766 ft 522 kts 153°
2026-04-25 01:21 35.29139 -119.78085 32506 ft 523 kts 153°
2026-04-25 01:22 35.26168 -119.75508 32242 ft 524 kts 153°
2026-04-25 01:22 35.23189 -119.72925 31973 ft 525 kts 153°
2026-04-25 01:22 35.20239 -119.70367 31717 ft 527 kts 153°
2026-04-25 01:22 35.17245 -119.67773 31461 ft 528 kts 153°
2026-04-25 01:23 35.14247 -119.65178 31203 ft 529 kts 153°
2026-04-25 01:23 35.11237 -119.62575 30946 ft 531 kts 153°
2026-04-25 01:23 35.08215 -119.59963 30694 ft 532 kts 152°
2026-04-25 01:23 35.05199 -119.57348 30444 ft 533 kts 152°
2026-04-25 01:24 35.02168 -119.54735 30199 ft 534 kts 152°
2026-04-25 01:24 34.99122 -119.52106 29954 ft 535 kts 152°
2026-04-25 01:24 34.96098 -119.49491 29286 ft 533 kts 152°
2026-04-25 01:24 34.93074 -119.46894 28548 ft 530 kts 152°
2026-04-25 01:25 34.90076 -119.44320 27881 ft 525 kts 152°
2026-04-25 01:25 34.87096 -119.41761 27199 ft 521 kts 152°
2026-04-25 01:25 34.84141 -119.39223 26531 ft 518 kts 152°
2026-04-25 01:25 34.81203 -119.36706 25858 ft 515 kts 152°
2026-04-25 01:26 34.78275 -119.34202 25185 ft 512 kts 152°
2026-04-25 01:26 34.75402 -119.31747 24603 ft 509 kts 151°
2026-04-25 01:26 34.72508 -119.29270 24291 ft 497 kts 152°
2026-04-25 01:26 34.69744 -119.26906 23892 ft 486 kts 152°
2026-04-25 01:27 34.67036 -119.24588 22911 ft 468 kts 152°
2026-04-25 01:27 34.64370 -119.22319 21783 ft 471 kts 152°
2026-04-25 01:27 34.61630 -119.20001 21505 ft 484 kts 151°
2026-04-25 01:28 34.56146 -119.15338 20171 ft 480 kts 150°
2026-04-25 01:28 34.53477 -119.13059 19764 ft 453 kts 150°
2026-04-25 01:28 34.50981 -119.10925 19315 ft 426 kts 151°
2026-04-25 01:28 34.48616 -119.08915 18677 ft 407 kts 151°
2026-04-25 01:29 34.46320 -119.06976 17719 ft 398 kts 151°
2026-04-25 01:29 34.44072 -119.05076 16869 ft 386 kts 150°
2026-04-25 01:29 34.41915 -119.03253 16346 ft 377 kts 150°
2026-04-25 01:29 34.39761 -119.01442 15812 ft 379 kts 150°
2026-04-25 01:30 34.37601 -118.99624 15422 ft 376 kts 150°
2026-04-25 01:30 34.35465 -118.97820 14980 ft 373 kts 149°
2026-04-25 01:30 34.33345 -118.96029 14544 ft 370 kts 149°
2026-04-25 01:30 34.31239 -118.94252 14109 ft 367 kts 149°
2026-04-25 01:31 34.29152 -118.92492 13675 ft 364 kts 149°
2026-04-25 01:31 34.27118 -118.90778 13283 ft 358 kts 149°
2026-04-25 01:31 34.25098 -118.89074 13047 ft 352 kts 149°
2026-04-25 01:31 34.23116 -118.87309 12861 ft 353 kts 146°
2026-04-25 01:32 34.21144 -118.85470 12693 ft 353 kts 146°
2026-04-25 01:32 34.20178 -118.84569 12634 ft 348 kts 146°
2026-04-25 01:32 34.18319 -118.82841 12468 ft 336 kts 146°
2026-04-25 01:32 34.16471 -118.81131 12308 ft 325 kts 146°
2026-04-25 01:33 34.14746 -118.79425 12144 ft 317 kts 142°
2026-04-25 01:33 34.13162 -118.77659 11855 ft 312 kts 141°
2026-04-25 01:33 34.11586 -118.75890 11542 ft 307 kts 141°
2026-04-25 01:33 34.10019 -118.74151 11221 ft 305 kts 141°
2026-04-25 01:34 34.08461 -118.72436 10810 ft 300 kts 141°
2026-04-25 01:34 34.06929 -118.70759 10358 ft 292 kts 141°
2026-04-25 01:34 34.05421 -118.69116 10028 ft 293 kts 141°
2026-04-25 01:34 34.03940 -118.67430 9662 ft 293 kts 134°
2026-04-25 01:35 34.02906 -118.65325 9322 ft 292 kts 108°
2026-04-25 01:35 34.02524 -118.62935 8994 ft 290 kts 98°
2026-04-25 01:35 34.02407 -118.61683 8823 ft 290 kts 97°
2026-04-25 01:35 34.02274 -118.60109 8608 ft 289 kts 97°
2026-04-25 01:36 34.02072 -118.57717 8284 ft 287 kts 97°
2026-04-25 01:36 34.01862 -118.55335 7966 ft 285 kts 97°
2026-04-25 01:36 34.01652 -118.52965 7641 ft 283 kts 97°
2026-04-25 01:36 34.01435 -118.50618 7319 ft 281 kts 98°
2026-04-25 01:37 34.01216 -118.48283 7002 ft 280 kts 98°
2026-04-25 01:37 34.01051 -118.45951 6685 ft 279 kts 90°
2026-04-25 01:37 34.01291 -118.43647 6383 ft 276 kts 80°
2026-04-25 01:37 34.01682 -118.41390 6085 ft 272 kts 79°
2026-04-25 01:38 34.02076 -118.39199 6001 ft 262 kts 79°
2026-04-25 01:38 34.02455 -118.37060 5971 ft 262 kts 79°
2026-04-25 01:38 34.02821 -118.34952 5921 ft 249 kts 79°
2026-04-25 01:38 34.03076 -118.32924 5711 ft 243 kts 84°
2026-04-25 01:39 34.03259 -118.30898 5414 ft 242 kts 85°
2026-04-25 01:39 34.03281 -118.28884 5132 ft 238 kts 100°
2026-04-25 01:39 34.02701 -118.27049 4825 ft 232 kts 118°
2026-04-25 01:39 34.02063 -118.25320 4539 ft 219 kts 114°
2026-04-25 01:40 34.01359 -118.23769 4273 ft 204 kts 129°
2026-04-25 01:40 34.00291 -118.22677 3989 ft 201 kts 147°
2026-04-25 01:40 33.99319 -118.21482 3720 ft 205 kts 121°
2026-04-25 01:40 33.99015 -118.19821 3464 ft 206 kts 88°
2026-04-25 01:41 33.99333 -118.18162 3224 ft 205 kts 74°
2026-04-25 01:41 33.99801 -118.16558 2957 ft 203 kts 72°
2026-04-25 01:41 34.00291 -118.14955 2711 ft 203 kts 72°
2026-04-25 01:41 34.00734 -118.13344 2577 ft 203 kts 79°
2026-04-25 01:42 34.00870 -118.11651 2573 ft 203 kts 89°
2026-04-25 01:42 34.00698 -118.09986 2571 ft 200 kts 114°
2026-04-25 01:42 33.99832 -118.08735 2574 ft 195 kts 148°
2026-04-25 01:42 33.98564 -118.08229 2579 ft 192 kts 171°
2026-04-25 01:43 33.97316 -118.07660 2564 ft 196 kts 147°
2026-04-25 01:43 33.96523 -118.06358 2584 ft 202 kts 112°
2026-04-25 01:43 33.96481 -118.04677 2586 ft 206 kts 77°
2026-04-25 01:43 33.97171 -118.03130 2584 ft 208 kts 55°
2026-04-25 01:44 33.98065 -118.01766 2576 ft 208 kts 52°
2026-04-25 01:44 33.99055 -118.00502 2575 ft 209 kts 37°
2026-04-25 01:44 34.00386 -117.99839 2574 ft 208 kts
2026-04-25 01:44 34.01770 -118.00106 2579 ft 206 kts 334°
2026-04-25 01:45 34.02812 -118.01228 2569 ft 201 kts 299°
2026-04-25 01:45 34.03131 -118.02825 2579 ft 196 kts 265°
2026-04-25 01:45 34.02675 -118.04337 2579 ft 193 kts 237°
2026-04-25 01:45 34.01905 -118.05654 2582 ft 192 kts 232°
2026-04-25 01:46 34.01094 -118.06931 2575 ft 191 kts 231°
2026-04-25 01:46 34.00284 -118.08203 2570 ft 191 kts 232°
2026-04-25 01:46 33.99472 -118.09475 2576 ft 191 kts 232°
2026-04-25 01:46 33.98694 -118.10754 2575 ft 191 kts 234°
2026-04-25 01:47 33.97969 -118.12094 2567 ft 193 kts 243°
2026-04-25 01:47 33.97674 -118.13678 2576 ft 195 kts 262°
2026-04-25 01:47 33.97569 -118.15307 2575 ft 195 kts 265°
2026-04-25 01:47 33.97478 -118.16939 2587 ft 195 kts 265°
2026-04-25 01:48 33.97366 -118.18563 2590 ft 194 kts 264°
2026-04-25 01:48 33.97242 -118.20179 2595 ft 194 kts 263°
2026-04-25 01:48 33.97113 -118.21795 2594 ft 193 kts 262°
2026-04-25 01:48 33.96939 -118.23369 2595 ft 182 kts 261°
2026-04-25 01:49 33.96839 -118.24340 2601 ft 170 kts 262°
2026-04-25 01:49 33.96707 -118.25667 2536 ft 157 kts 262°
2026-04-25 01:49 33.96579 -118.26922 2340 ft 149 kts 262°
2026-04-25 01:49 33.96452 -118.28142 2135 ft 145 kts 262°
2026-04-25 01:50 33.96333 -118.29313 1940 ft 137 kts 262°
2026-04-25 01:50 33.96256 -118.30050 1816 ft 134 kts 261°
2026-04-25 01:50 33.96179 -118.30784 1701 ft 134 kts 261°
2026-04-25 01:50 33.96024 -118.32278 1457 ft 135 kts 261°
2026-04-25 01:51 33.95909 -118.33401 1270 ft 135 kts 261°
2026-04-25 01:51 33.95794 -118.34520 1094 ft 134 kts 261°
2026-04-25 01:51 33.95677 -118.35644 901 ft 134 kts 262°
2026-04-25 01:51 33.95565 -118.36766 728 ft 135 kts 261°
2026-04-25 01:52 33.95449 -118.37871 546 ft 130 kts 262°
2026-04-25 01:52 33.95343 -118.38941 371 ft 128 kts 263°
2026-04-25 01:52 33.95227 -118.40009 204 ft 128 kts 262°
2026-04-25 01:52 33.95151 -118.40710 121 ft 125 kts 261°
2026-04-25 01:53 33.95055 -118.41722 113 ft 64 kts 262°
2026-04-25 01:53 33.95003 -118.42208 112 ft 45 kts 260°
2026-04-25 01:53 33.94969 -118.42319 113 ft 8 kts 242°
2026-04-25 01:53 33.94928 -118.42390 111 ft 13 kts 231°
2026-04-25 01:54 33.94861 -118.42477 111 ft 11 kts 211°
2026-04-25 01:54 33.94818 -118.42490 113 ft 8 kts 186°
2026-04-25 01:54 33.94728 -118.42483 111 ft 8 kts 173°
2026-04-25 01:54 33.94696 -118.42479 109 ft 0 kts 173°
2026-04-25 01:55 33.94646 -118.42471 105 ft 14 kts 172°
2026-04-25 01:55 33.94589 -118.42379 106 ft 15 kts 83°
2026-04-25 01:55 33.94604 -118.42243 104 ft 18 kts 83°
2026-04-25 01:55 33.94619 -118.42084 103 ft 20 kts 83°
2026-04-25 01:56 33.94628 -118.41904 104 ft 23 kts 88°
2026-04-25 01:56 33.94645 -118.41724 102 ft 9 kts 82°
2026-04-25 01:56 33.94653 -118.41653 102 ft 10 kts 83°
2026-04-25 01:56 33.94663 -118.41557 104 ft 13 kts 83°
2026-04-25 01:57 33.94672 -118.41307 105 ft 14 kts 121°
2026-04-25 01:57 33.94619 -118.41273 103 ft 13 kts 171°
2026-04-25 01:57 33.94536 -118.41233 102 ft 7 kts 120°
2026-04-25 01:58 33.94527 -118.41197 102 ft 0 kts 100°
2026-04-25 01:58 33.94527 -118.41195 102 ft 1 kts 100°
2026-04-25 01:58 33.94525 -118.41185 103 ft 3 kts 100°
2026-04-25 01:59 33.94522 -118.41162 101 ft 0 kts 98°
2026-04-25 01:59 33.94522 -118.41160 101 ft 1 kts 96°
2026-04-25 01:59 33.94521 -118.41148 101 ft 1 kts 96°
2026-04-25 01:59 33.94521 -118.41145 101 ft 0 kts 96°